Погода в Рязани

Погода в Рязани : погода сейчас, прогноз погоды и архив. Всё, что Вы хотите узнать о погоде в Рязани!

Хотите узнать прогноз погоды в Рязани? Тогда Вам сюда: Погода в Рязани

Поиск расширенной информации на нашем сайте:

Другие новости

Новости СМИ2

Главная страница сайта

Новости сайта

03.07.2017

Напоминаем, что на нашем специализированном сайте Метеоцентр.Азия вы можете получить высокодетализированные автоматические прогнозы погоды по пунктам России, СНГ и мира в авиационном формате (включающие направление и скорость ветра, видимость, явления погоды, количество и форму облачности, нижнюю и верхнюю границу облачности).


Погода в Рязани - сегодня

Время (UTC), дата Ветер
(°,м/с) 
Видим.   Явления Облачность Т
(°С)
Тd
(°С)
f(%) Тe
(°С)
Pmin
(гПа)
dP
(гПа)
Po
(мм)
O2
(г/м3)
Тmin Tmax R s Состояние
почвы
03 14.10.18 тихо ()   4000 м  дымка  3/0 верхняя 
[Ci fib]
+6.3 +6 98 +6  1026.4  -0.5  755  296  +5.2        влажная 
06 14.10.18 280 (З) 10 км    8/0 средняя, верхняя 
[Ac As|Ci fib]
+7.5 +7.2 98 +8  1026.7  0.5  756  295           
09 14.10.18 320 (СЗ) 20000 м    9/0 верхняя 
[Cs]
+15.1 +10.6 74 +18  1025.7  -0.4  755  286           
12 14.10.18 310 (СЗ) 20000 м    6/0 верхняя 
[Ci fib]
+18.2 +10.4 60 +21  1024.5  -1  754  283           
18 14.10.18 300 (СЗ) 20000 м    ясно 
+12.4 +10.8 90 +16  1025.1  0.1  755  289           
21 14.10.18 300 (СЗ) 10 км    ясно 
+10.8 +10 95 +13  1025.6  0.3  755  291           
00 15.10.18 310 (СЗ) 10 км    ясно 
+10.9 +10 94 +12  1025.9  0.3  755  291           
03 15.10.18 320 (СЗ) 10 км    ясно 
+10.3 +9.7 96 +11  1026.3  0.4  755  292  +10.3        сухая 
06 15.10.18 290 (З) 20000 м    ясно 
+11.8 +10.5 92 +14  1026.8  0.6  756  290  +8.9         
09 15.10.18 290 (З) 20000 м    ясно 
+18 +10.6 62 +21  1026.8  0.4  756  284           
12 15.10.18 300 (СЗ) 20000 м    ясно 
+20.1 +6.4 41 +20  1026.3  -0.4  756  283           
15 15.10.18 тихо ()   20000 м    ясно 
+11.9 +7.2 73 +12  1027.1  0.2  756  291    +20.3       
18 15.10.18 300 (СЗ) 10 км    ясно 
+9.8 +8.6 92 +11  1027.5  0.3  756  293           
21 15.10.18 тихо ()   10 км    ясно 
+6.6 +6.3 98 +7  1027.5  -0.2  756  296           
00 16.10.18 тихо ()   4000 м  дымка  ясно 
+6.2 +5.9 98 +6  1028  0.4  756  297           
03 16.10.18 180 (Ю) 4000 м  дымка  3/0 верхняя 
[Ci fib]
+5 +4.8 99 +6  1028  756  299  +4.4        влажная 
06 16.10.18 210 (ЮЗ) 4000 м    9/0 верхняя 
[Ci fib]
+8.2 +7.9 98 +9  1027.8  756  295  +4.2         
09 16.10.18 260 (З) 20000 м    10/0 верхняя 
[Ci fib]
+16 +7.1 55 +17  1027  -0.3  756  287           
12 16.10.18 280 (З) 20000 м    8/0 верхняя 
[Ci fib]
+19 +7.1 46 +20  1027  -1  755  283           
18 16.10.18 250 (З) 20000 м    ясно 
+10.5 +3.7 63 +12  1024.9  -0.5  754  292           
21 16.10.18 230 (ЮЗ) 20000 м    ясно 
+7.8 +4.6 80 +9  1024.8  -0.3  754  295           
00 17.10.18 тихо ()   10 км    ясно 
+6.4 +5.3 93 +6  1025  0.1  754  296           
03 17.10.18 тихо ()   10 км    ясно 
+4.7 +4.4 98 +5  1024.9  -0.2  754  298  +4.7        влажная 
06 17.10.18 280 (З) 20000 м    ясно 
+9.5 +6.8 83 +11  1025.3  0.7  755  293  +4.3         
09 17.10.18 280 (З) 20000 м    ясно 
+15.7 +6.7 55 +16  1025.6  0.7  755  287           
Время (UTC), дата Ветер
(°,м/с) 
Видим.   Явления Облачность Т
(°С)
Тd
(°С)
f(%) Тe
(°С)
Pmin
(гПа)
dP
(гПа)
Po
(мм)
O2
(г/м3)
Тmin Tmax R s Состояние
почвы

Для получения пояснительной информации подведите курсор к названию столбца.

ПОГОДА в Рязани - архив

Всё, что Вы хотите узнать о погоде в Рязани - удобно и подробно!

Выберите нужную дату (начиная с 1 января 2015* года) и нажмите кнопку "Найти".
Будут отображены архивные сводки погоды по пункту Рязань, начиная с указанной даты.


Отображать данные в формате CSV (для использования в таблицах Excel)


Внимание! Наш архив погоды предназначен исключительно для личного некоммерческого использования в познавательных целях. Если Вам необходимы официальные справки о состоянии погоды (для производственных, юридических, коммерческих и т.п. целей), обращайтесь в органы Росгидромета.

*Примечание: данная дата относится к архиву по метеостанциям СССР (Россия, СНГ, Балтия).
Архив по метеостанциям Зарубежной Европы и Азии (кроме Китая) хранится 10 дней, по другим регионам земного шара (Китай, Африка, Америка, Австралия, Океания) - 1 день.

Рязань - район местоположения метеостанции


Название, широта, долгота, высота метеостанции:
Рязань 54.6°ш. 39.7°д. 158 м над ур. моря [Российская Федерация]

Дополнительная информация

В oтличие oт бoльшинства пoгoдных сайтoв мы публикуем пoдрoбную метеoинфoрмацию в детальнoм прoфессиoнальнoм фoрмате.

Характеристики температуры и влажнoсти вoздуха измеряются на высoте 2 м в тени вдали oт зданий и деревьев.
Скoрoсть ветра измеряется на высoте 10 м (на урoвне рoста челoвека скoрoсть ветра ниже в 1.5-2 раза). Если метеoстанция нахoдится в гoрoде или в лесу, тo скoрoсть ветра занижена на 2-4 м/с пo сравнению с oткрытым местoм. Скoрoсть ветра над акватoриями крупных рек и oзёр, а также на вершинах хoлмoв на 2-5 м/с выше, чем в oбычных услoвиях.
Атмoсфернoе давление в разных тoчках местнoсти мoжет значительнo oтличаться oт давления на метеoстанции, в зависимoсти oт услoвий рельефа (при пoдъёме на 10 м давление пoнижается примернo на 1 мм рт.ст.).